Location: 22
(39.7117°N, 89.5929°W)
Time: 08:07:39
(UTC-05:00)

ARIANE 6 FM1 Upper Stage - Pass Details

Date: 13 April 2026
Orbit: 526 x 601 km, 62.0° (Epoch: 18 May)

Event Time Altitude Azimuth Distance (km) Brightness Sun altitude
Rises 21:17:53 0° 273° (W) 2,724 7.3 -19.2°
Reaches altitude 10° 21:22:11 10° 316° (NW) 1,812 6.4 -19.9°
Maximum altitude 21:22:52 10° 326° (NW) 1,787 6.2 -20.0°
Drops below altitude 10° 21:23:32 10° 335° (NNW) 1,806 6.0 -20.1°
Sets 21:27:48 0° 19° (NNE) 2,684 6.3 -20.8°
